Regional Weather Roundup
Issued by NWS Mt. Holly, NJ

Home | Current Version | Previous Version | Text Only | Print | Product List | Glossary On
Versions: 1 2 3 4 5 6 7 8 9 10 11 12 13 14 15 16 17 18 19 20 21 22 23 24 25 26 27 28 29 30 31 32 33 34 35 36 37 38 39 40 41 42 43 44 45 46 47 48 49 50
000
ASUS41 KPHI 301110
RWRPHI

REGIONAL WEATHER ROUNDUP
NATIONAL WEATHER SERVICE MOUNT HOLLY NJ
700 AM EDT TUE SEP 30 2014

NOTE:  "FAIR" INDICATES FEW OR NO CLOUDS BELOW 12,000 FEET WITH NO
SIGNIFICANT WEATHER AND/OR OBSTRUCTIONS TO VISIBILITY.

 * = STATION DOES NOT REPORT PRECIPITATION (E.G. RAIN, SNOW, ETC.)
        OR FOG.

NJZ015>026-301200-
SOUTHERN NEW JERSEY

CITY           SKY/WX    TMP DP  RH WIND       PRES   REMARKS
POMONA         CLOUDY    60  58  92 CALM      29.95R
RIO GRANDE*    CLOUDY    63  57  82 CALM      29.94R
MILLVILLE      CLOUDY    63  61  93 CALM      29.94R
WRIGHTSTOWN    CLOUDY    59  58  97 CALM      29.92S
MOUNT HOLLY    CLOUDY    60  58  92 NE3       29.94R FOG
TRENTON        MOCLDY    61  58  90 CALM      29.94R

$$
NJZ001>014-301200-
NORTHERN NEW JERSEY

CITY           SKY/WX    TMP DP  RH WIND       PRES   REMARKS
SUSSEX         CLOUDY    61  58  90 CALM      29.95R
ANDOVER*         N/A     54  54 100 CALM      29.95R
MORRISTOWN     CLOUDY    61  59  94 CALM      29.95R
NEWARK         MOCLDY    67  61  81 S3        29.95R
TETERBORO      CLOUDY    66  60  81 SE3       29.94R
CALDWELL       CLOUDY    62  58  86 CALM      29.95R
SOMERVILLE     PTCLDY    56  54  93 CALM      29.94R FOG
ALLAIRE*       CLOUDY    63  54  72 CALM      29.95R
TOMS RIVER*    CLOUDY    59  55  88 CALM      29.94R

$$
PAZ043-044-047-054-055-060>062-066>071-301200-
EASTERN PENNSYLVANIA

CITY           SKY/WX    TMP DP  RH WIND       PRES   REMARKS
PHILADELPHIA   CLOUDY    65  61  87 SE3       29.93S
NORTH PHILA    CLOUDY    63  58  83 CALM      29.96R
BLUE BELL      CLOUDY    61  59  94 CALM      29.93R
DOYLESTOWN     FOG       58  58 100 CALM      29.94R VSB 3/4
QUAKERTOWN*    CLOUDY    57  57 100 CALM      29.95R VSB<1/4
POTTSTOWN      CLOUDY    57  56  96 CALM      29.95R FOG
LANCASTER      FOG       60  60 100 E3        29.92S VSB 1/4
COATESVILLE    CLOUDY    63  63 100 SE3       29.95R FOG
READING        CLOUDY    61  58  90 CALM      29.92S FOG
ALLENTOWN      FOG       57  56  96 CALM      29.94R VSB 1/4
MOUNT POCONO   FOG       54  52  93 CALM      29.96R VSB 1/4
HAZLETON       CLOUDY    59  59 100 CALM      29.97S FOG
WILKES BARRE   CLEAR     58  54  86 E3        29.93R FOG

$$
DEZALL-MDZ008-012-015-019-020-301200-
DELAWARE AND EASTERN MARYLAND

CITY           SKY/WX    TMP DP  RH WIND       PRES   REMARKS
WILMINGTON     MOCLDY    64  62  93 S3        29.94R
DOVER          CLOUDY    61  61 100 SE2       29.92R
GEORGETOWN     MOCLDY    61  59  93 CALM      29.94R FOG
EASTON           N/A     61  61 100 CALM      29.97R
PATUXENT       CLOUDY    63  62  97 CALM      29.93R FOG
OCEAN CITY     CLOUDY   N/A N/A N/A NW5       29.93R
WALLOPS ISLAND CLOUDY    64  62  93 N3        29.93R
CAMBRIDGE      PTCLDY    59  55  88 CALM      29.92S
SALISBURY      CLOUDY    65  61  87 CALM      29.93R

$$
PAZ001-021-NYZ056-072-MDZ011-DCZ001-301200-
OTHER NEARBY LOCATIONS

CITY           SKY/WX    TMP DP  RH WIND       PRES   REMARKS
HARRISBURG     CLOUDY    61  60  97 CALM      29.91R FOG
STATE COLLEGE  CLOUDY    54  54 100 CALM      29.92R FOG
WILLIAMSPORT   FOG       58  56  93 N3        29.91R VSB 1/4
BINGHAMTON     CLEAR     54  53  97 SE7       29.92S FOG
NEW YORK CITY  CLOUDY    68  61  78 SE3       29.98R
BALTIMORE      CLOUDY    64  62  93 SE3       29.92R FOG
WASHINGTON DC  CLOUDY    68  62  81 CALM      29.92S

$$



USA.gov is the U.S. government's official web portal to all federal, state and local government web resources and services.